Temperature
18 18 18 18 18 18 18 18 18 18 18 18 18 18 18 18 18 18 18 18 18 18 18 18 18 18 18 18 18 18 18 18 18 18 17 18 17 17 17 17 17 17 17
18 18 18 18 18 18 18 18 18 18 18 18 18 18 18 18 18 18 18 18 18 18 18 18 18 18 18 18 18 18 18 18 18 17 17 17 17 17 17 17 17 17 17
18 18 18 18 18 18 18 18 18 18 18 18 18 18 18 18 18 18 18 18 18 18 18 18 18 18 18 18 18 18 18 17 17 17 17 17 17 17 17 17 17 17 17
18 18 18 18 18 18 18 18 18 18 18 18 18 18 18 18 18 18 18 18 18 18 18 18 18 18 18 18 18 17 17 17 17 17 17 17 16 17 17 17 17 17 17
18 18 18 18 18 18 18 18 18 18 18 18 18 18 18 18 18 18 18 18 18 18 18 18 18 18 18 17 17 17 17 17 17 17 17 17 16 17 17 17 17 17 17
18 18 17 18 18 18 18 18 18 18 18 18 18 18 18 18 18 18 18 18 18 18 18 18 18 18 18 17 17 17 17 17 17 17 17 17 17 17 17 17 17 17 17
19 18 18 18 18 18 18 18 18 18 18 18 18 18 18 18 18 18 18 18 18 18 18 18 18 18 17 17 17 17 17 17 17 17 17 17 17 17 17 17 17 17 17
19 18 18 18 18 18 18 18 18 18 18 18 18 18 18 18 18 18 18 18 18 18 18 18 18 17 17 17 17 17 17 17 17 17 17 17 17 17 17 17 17 17 17
19 18 18 18 18 18 18 18 18 18 18 18 18 18 18 18 18 18 18 18 18 18 18 17 17 17 17 17 17 17 17 17 17 17 17 17 17 17 17 17 17 17 17
18 18 18 18 18 17 17 18 18 18 18 18 18 18 18 18 18 18 17 18 18 18 17 17 17 17 17 17 17 17 17 17 17 17 17 17 17 17 17 17 17 17 17
18 18 18 18 18 18 17 17 18 18 18 18 18 18 18 17 17 17 17 18 18 18 18 17 17 17 17 17 17 17 17 17 17 17 17 17 18 17 17 17 17 17 17
18 18 18 18 18 18 17 17 17 17 17 17 17 17 17 17 17 17 17 18 18 18 18 18 17 17 17 17 17 17 17 17 17 17 17 18 18 18 17 17 17 17 17
19 18 18 18 18 18 18 17 17 17 17 17 17 17 17 17 17 17 17 17 17 17 17 17 17 17 17 17 17 17 17 17 17 17 17 18 18 18 17 17 17 17 17
19 19 18 18 18 18 18 17 17 17 17 17 17 17 17 17 17 17 17 17 17 17 17 17 17 17 17 17 17 17 17 17 17 17 17 18 18 18 17 17 17 17 17
19 19 19 18 18 18 18 18 17 17 17 17 17 17 17 17 17 17 17 17 17 17 17 17 17 17 17 17 17 17 17 17 17 17 17 18 18 18 18 18 18 17 17
19 19 19 18 18 18 18 18 18 17 18 17 17 17 17 17 17 17 17 17 17 17 17 17 17 17 17 17 17 17 17 17 17 17 17 17 18 18 18 18 18 18 17
19 19 19 18 18 18 18 18 18 18 18 18 18 17 17 17 17 17 17 17 17 17 17 17 17 17 17 17 17 17 17 17 17 17 17 17 17 18 18 18 18 18 17
20 19 19 19 19 19 18 18 18 18 18 18 18 18 18 17 18 18 17 17 17 17 17 17 17 17 17 17 17 18 18 17 17 17 18 18 18 18 18 18 18 18 17
20 20 20 19 19 19 18 18 18 18 18 18 18 18 18 18 17 17 17 17 17 17 17 17 18 17 17 17 18 18 18 18 18 18 18 18 18 17 18 18 18 18 18
20 20 20 20 19 19 18 19 18 18 18 18 18 18 18 18 18 17 18 18 18 18 17 17 17 17 17 18 18 18 18 18 18 18 18 18 18 18 18 17 17 18 18
20 20 20 20 19 19 19 18 18 18 18 18 18 18 18 18 18 18 18 18 18 18 17 17 17 17 18 18 18 18 18 18 18 18 18 18 18 18 18 18 18 18 18
21 21 20 20 20 20 19 19 19 19 19 19 19 18 18 18 18 18 18 18 18 18 18 18 18 18 18 18 18 19 19 19 18 18 18 18 18 18 18 18 18 18 18
21 21 21 21 20 20 20 19 19 19 19 19 19 19 19 18 18 18 18 18 18 18 18 18 18 17 18 18 18 18 19 20 19 19 18 18 18 18 18 18 17 18 17
22 22 21 21 21 21 20 19 19 19 19 19 19 19 19 19 18 18 18 18 18 18 18 18 18 18 18 18 18 18 18 18 19 19 19 18 18 18 18 18 18 17 17
22 22 22 22 21 21 21 20 20 19 19 19 19 19 19 18 18 18 18 18 18 18 18 18 18 18 18 18 18 18 18 18 18 18 19 18 18 18 18 17 18 18 17
22 22 22 22 22 21 21 21 20 20 19 19 19 19 19 19 18 18 18 18 18 18 18 18 18 18 18 18 18 18 18 18 18 18 18 18 18 18 17 17 17 17 17
Wind_Speed
6 8 11 11 13 14 15 16 16 17 17 17 17 17 17 17 17 16 16 15 15 15 15 14 14 13 13 13 13 13 13 13 13 13 13 13 13 13 13 12 11 13 14
8 11 12 12 13 15 15 16 16 16 16 16 16 16 16 16 16 15 15 15 15 14 14 13 13 13 12 12 12 12 12 12 13 12 12 13 12 12 11 8 7 13 13
10 12 13 13 14 15 15 15 15 15 15 15 15 15 15 15 15 14 14 14 13 13 13 12 12 12 12 12 12 11 11 11 11 10 9 10 12 11 10 10 11 12 12
11 12 13 14 14 15 14 14 14 15 14 14 14 14 14 13 13 13 12 12 12 12 12 11 11 11 11 11 11 11 11 10 9 8 7 9 10 11 9 9 10 10 10
11 12 14 13 14 14 14 14 14 14 13 13 13 13 13 13 12 11 11 11 11 10 10 10 10 10 10 10 10 10 10 9 7 6 7 7 8 11 9 8 9 9 9
12 13 15 12 13 13 13 13 13 13 13 12 12 12 12 12 11 11 10 10 10 10 9 9 9 9 8 8 9 9 9 8 7 6 6 6 8 10 8 8 8 9 9
12 12 15 13 12 12 11 11 12 12 12 11 11 11 11 11 10 9 9 9 9 8 8 8 8 8 7 7 8 8 7 5 4 5 6 6 8 10 8 7 8 8 8
11 12 14 13 12 11 10 10 10 11 11 11 10 10 10 10 10 9 8 9 8 8 7 7 7 7 7 7 7 7 7 6 5 4 5 6 10 9 8 8 7 7 8
10 11 11 12 12 10 9 9 9 10 10 10 9 9 9 9 9 8 8 7 7 7 6 6 7 7 6 6 7 7 6 5 4 4 4 5 10 8 8 8 8 7 7
9 9 10 10 10 10 10 9 8 8 9 9 8 8 8 8 8 8 8 7 7 7 6 6 6 6 6 6 6 6 6 7 5 4 4 7 9 8 8 8 8 8 7
9 8 9 9 9 8 8 10 9 9 9 8 8 8 7 7 7 7 6 6 5 6 6 6 6 6 6 8 7 6 7 6 4 3 3 9 8 7 7 9 9 9 8
11 9 8 8 8 8 7 8 6 7 8 6 6 6 5 4 4 4 8 6 5 5 6 6 6 8 9 8 9 9 6 5 4 4 5 9 7 7 8 8 9 10 10
11 10 10 8 7 7 6 6 5 5 5 5 5 4 3 3 4 4 5 7 6 7 6 7 8 7 5 4 5 6 4 4 4 4 6 10 8 8 9 9 10 11 11
11 10 9 9 7 6 5 5 5 5 5 4 5 4 4 2 2 2 2 3 4 4 3 4 4 5 4 4 4 4 5 5 4 3 5 9 8 9 10 10 11 12 12
11 10 9 8 7 6 5 5 5 4 4 5 5 5 4 3 3 2 2 2 2 3 4 3 3 3 3 4 5 5 5 5 4 5 5 10 10 11 11 12 12 13 13
11 11 10 9 9 7 6 5 4 5 4 5 5 5 5 3 2 2 3 2 3 3 2 3 3 3 3 3 4 4 5 5 5 6 6 8 12 13 13 13 13 14 14
11 11 10 10 10 9 7 7 5 5 6 5 4 5 5 5 3 3 2 3 2 3 3 3 3 3 4 4 4 4 5 5 5 6 7 6 9 13 14 14 14 14 15
11 11 11 10 10 9 7 6 5 5 5 5 5 5 6 5 5 4 3 3 3 3 3 3 3 3 3 3 3 4 4 5 6 6 7 8 7 7 12 15 15 15 16
12 12 11 10 10 10 8 7 6 5 5 5 5 5 5 6 6 6 4 3 4 3 3 3 2 3 3 4 5 5 5 5 5 7 7 8 8 8 8 12 16 16 16
13 12 12 11 10 9 8 7 6 6 6 6 5 5 6 6 6 6 5 4 5 4 3 3 3 4 4 4 5 4 5 5 6 6 7 7 7 8 9 8 9 13 17
13 13 13 12 11 9 8 8 7 7 6 6 5 6 7 6 6 5 4 4 5 4 4 4 4 4 5 3 4 4 4 5 5 5 5 4 5 5 6 6 7 7 8
15 14 14 13 13 12 9 7 6 6 6 6 5 5 7 7 6 6 5 5 5 4 5 5 5 4 4 3 3 3 3 4 4 3 3 4 4 4 4 5 5 6 6
16 16 14 14 13 13 11 9 7 6 6 6 6 6 7 7 7 6 6 5 5 6 6 6 6 6 5 4 3 3 3 1 1 3 3 3 3 3 3 3 4 4 5
17 15 14 13 13 13 12 11 11 8 8 7 6 6 6 7 7 7 6 6 6 6 5 6 6 5 6 5 4 4 4 3 3 2 3 3 3 3 3 4 3 3 4
16 15 14 14 13 13 12 11 11 10 8 7 6 6 6 6 6 7 6 6 6 6 6 6 5 6 5 5 4 4 4 4 6 5 3 2 2 2 2 3 2 2 2
16 15 15 15 14 13 13 13 12 11 10 8 7 7 6 5 6 7 7 6 6 6 6 6 6 6 6 6 5 5 5 4 4 5 5 4 3 2 2 2 2 2 2
Wind_Direction
114 111 115 116 114 114 118 118 120 121 121 120 119 119 120 119 118 116 115 116 117 116 115 115 115 115 115 114 114 112 110 111 110 111 112 112 112 113 115 121 131 114 116
118 116 117 116 114 115 118 118 119 119 121 121 121 123 122 121 119 117 116 116 116 116 115 116 117 116 116 117 118 116 114 114 115 116 120 117 113 113 114 112 90 108 121
118 119 122 116 115 115 117 118 121 121 122 122 122 123 122 121 120 119 118 117 117 117 116 117 118 118 119 120 121 120 119 118 121 129 145 129 118 116 115 111 107 117 123
118 119 118 117 118 119 118 119 122 123 124 126 126 125 123 121 120 120 120 119 118 119 120 122 122 123 123 125 125 124 121 120 130 162 151 121 122 119 122 123 126 129 129
119 116 114 120 121 121 121 121 122 124 125 128 129 128 127 126 125 124 123 122 122 123 124 124 126 126 129 130 129 129 127 128 155 183 116 113 114 124 132 134 135 136 136
126 124 119 122 121 122 122 124 123 124 125 127 129 130 130 130 130 129 128 125 126 128 129 128 131 133 133 132 133 136 138 150 185 135 125 131 124 132 142 144 142 141 141
127 123 123 125 123 122 122 126 127 127 128 129 131 131 132 132 131 131 131 130 130 133 134 135 138 140 137 137 141 144 147 178 184 135 139 137 123 136 149 151 151 150 148
130 127 124 127 127 128 127 124 127 128 129 129 129 131 134 136 136 136 136 135 138 140 142 144 148 153 151 148 151 154 164 209 184 155 152 138 128 150 160 159 159 159 160
133 131 132 135 134 135 131 132 131 132 132 131 132 133 136 137 137 136 137 139 142 146 150 155 157 159 158 156 159 165 177 224 215 169 162 140 138 159 167 169 170 169 170
138 137 137 138 138 148 146 146 142 140 138 135 136 137 139 144 146 148 154 144 145 148 152 157 161 164 161 161 165 168 181 218 201 180 170 134 144 165 176 182 182 183 182
149 148 147 142 145 149 149 145 152 148 146 154 150 150 165 161 156 162 142 139 152 158 163 165 160 163 171 173 172 178 202 216 185 193 170 128 159 182 191 193 192 192 193
158 158 154 152 154 157 152 148 158 157 152 166 150 159 159 148 156 149 134 155 166 171 177 174 173 183 199 180 174 193 207 209 212 201 153 144 177 199 205 203 202 202 203
160 161 162 163 163 160 154 157 159 153 150 157 154 163 156 170 168 162 155 165 177 187 190 175 191 193 189 183 190 192 198 223 220 218 159 159 190 210 215 214 212 209 208
164 166 164 163 167 170 164 159 165 164 163 159 156 183 174 181 191 153 168 172 181 182 189 195 193 188 191 193 204 206 210 228 225 220 167 170 199 215 219 221 220 218 216
171 172 168 169 171 172 173 187 169 168 171 165 171 184 195 194 194 165 176 197 209 189 187 200 203 192 200 204 212 213 223 232 239 235 189 183 205 219 225 224 224 224 224
179 178 174 179 178 181 184 189 178 179 182 183 184 183 203 207 194 200 195 202 210 210 204 202 196 203 217 219 224 227 234 231 226 238 234 197 204 217 227 229 224 224 226
184 183 182 184 183 187 192 193 189 193 189 192 186 187 204 214 207 219 216 217 211 205 201 216 208 214 224 224 227 233 234 237 233 234 242 237 218 211 218 223 222 223 225
186 186 189 192 185 188 195 199 196 202 199 200 197 195 206 215 217 224 225 224 214 219 211 211 221 223 236 249 242 239 237 229 236 237 238 235 238 230 210 211 218 223 226
190 189 191 197 192 193 193 201 210 204 209 214 207 205 205 216 217 221 227 228 225 226 225 232 215 238 237 245 244 231 240 236 236 239 243 242 235 238 236 203 210 222 227
192 192 192 194 194 195 195 199 210 211 210 214 215 212 216 218 218 226 221 219 229 225 227 230 227 234 243 244 258 255 253 246 239 241 245 241 235 234 237 235 218 218 220
193 194 195 198 192 196 199 201 202 206 211 212 217 212 217 224 220 226 238 216 228 225 231 235 234 226 236 240 253 251 238 230 234 236 241 251 242 242 245 241 241 241 220
195 196 196 198 197 199 199 203 209 215 216 216 219 211 221 222 224 221 227 232 227 229 229 232 235 248 243 226 256 264 241 203 207 218 225 228 244 244 243 240 239 238 250
197 197 198 198 198 201 199 202 201 207 221 214 214 213 219 222 224 233 231 238 236 237 230 231 234 240 248 234 236 260 274 259 230 186 205 214 221 239 248 242 238 237 239
198 194 196 195 198 199 200 208 207 210 216 218 217 216 215 220 227 227 231 232 237 243 238 237 228 243 247 246 225 236 263 298 280 239 198 184 198 223 245 251 243 225 230
196 192 192 193 197 197 200 205 211 217 220 220 216 215 221 215 221 226 226 227 232 239 241 246 246 246 244 250 248 238 236 238 248 262 253 234 218 218 224 234 239 234 225
193 192 192 192 196 196 199 204 211 218 221 222 219 218 219 217 216 219 222 227 234 240 237 239 240 237 247 253 256 249 242 244 242 248 257 249 248 246 240 245 243 222 196
Height
1518 1518 1517 1518 1519 1521 1522 1524 1525 1527 1529 1530 1532 1533 1535 1536 1538 1539 1541 1543 1544 1546 1547 1548 1549 1550 1552 1552 1553 1554 1554 1555 1555 1556 1557 1557 1558 1559 1559 1560 1561 1562 1562
1519 1519 1519 1520 1522 1523 1525 1527 1528 1530 1531 1533 1535 1536 1537 1539 1541 1542 1543 1545 1546 1548 1549 1550 1551 1552 1553 1554 1555 1555 1556 1556 1557 1558 1558 1559 1560 1561 1561 1562 1563 1564 1564
1521 1521 1521 1522 1524 1526 1527 1529 1531 1533 1534 1536 1537 1539 1540 1541 1543 1544 1546 1547 1548 1550 1551 1552 1553 1553 1554 1555 1556 1557 1557 1558 1558 1559 1560 1562 1562 1562 1563 1563 1564 1565 1565
1523 1524 1524 1525 1527 1528 1530 1532 1533 1535 1536 1538 1539 1541 1542 1544 1545 1546 1547 1549 1550 1551 1552 1553 1554 1555 1556 1556 1557 1558 1559 1559 1560 1561 1564 1565 1565 1563 1564 1565 1565 1566 1567
1525 1526 1526 1528 1529 1531 1532 1534 1536 1537 1538 1540 1541 1543 1544 1545 1547 1548 1549 1550 1551 1552 1553 1554 1555 1556 1557 1558 1558 1559 1560 1560 1561 1563 1565 1565 1566 1565 1565 1566 1567 1567 1568
1528 1529 1529 1530 1532 1533 1535 1536 1538 1539 1541 1542 1543 1544 1546 1547 1548 1549 1551 1552 1553 1554 1554 1555 1556 1557 1558 1559 1559 1560 1561 1562 1563 1566 1566 1566 1567 1566 1566 1567 1568 1568 1569
1530 1531 1532 1532 1534 1535 1537 1538 1540 1541 1542 1543 1545 1546 1547 1548 1550 1551 1552 1553 1554 1554 1555 1556 1557 1558 1559 1560 1560 1561 1562 1563 1565 1567 1567 1567 1567 1567 1567 1568 1569 1569 1570
1532 1533 1533 1534 1536 1537 1539 1540 1542 1543 1544 1545 1546 1547 1548 1550 1551 1552 1553 1554 1554 1555 1556 1557 1558 1559 1559 1560 1561 1562 1563 1563 1566 1567 1568 1568 1567 1567 1568 1569 1569 1570 1571
1534 1535 1536 1537 1538 1539 1540 1542 1543 1544 1545 1546 1547 1548 1549 1551 1552 1553 1553 1554 1555 1556 1557 1558 1558 1559 1560 1561 1562 1562 1563 1564 1567 1568 1568 1568 1568 1568 1568 1569 1570 1570 1571
1535 1537 1537 1539 1540 1542 1542 1543 1544 1545 1546 1547 1548 1549 1551 1552 1553 1553 1554 1555 1556 1557 1557 1558 1559 1560 1561 1561 1562 1563 1564 1565 1567 1568 1569 1568 1568 1568 1568 1569 1570 1571 1571
1535 1537 1539 1541 1541 1543 1544 1544 1545 1546 1547 1548 1549 1550 1552 1553 1554 1554 1555 1555 1556 1557 1558 1559 1559 1560 1561 1561 1562 1563 1564 1566 1568 1568 1568 1568 1568 1568 1569 1569 1570 1571 1571
1536 1538 1539 1541 1542 1544 1545 1546 1547 1548 1548 1550 1551 1552 1553 1553 1554 1555 1555 1556 1556 1557 1558 1559 1559 1560 1561 1563 1563 1563 1565 1566 1567 1568 1568 1567 1567 1568 1568 1569 1569 1570 1571
1536 1538 1540 1541 1543 1544 1545 1546 1547 1549 1549 1550 1551 1552 1553 1554 1555 1556 1556 1557 1557 1558 1559 1559 1560 1561 1562 1563 1564 1565 1565 1566 1567 1568 1567 1566 1567 1567 1568 1568 1569 1569 1570
1537 1538 1540 1541 1542 1544 1545 1547 1548 1549 1550 1551 1551 1552 1553 1554 1554 1556 1556 1557 1558 1558 1559 1560 1560 1561 1562 1562 1563 1564 1565 1565 1566 1566 1566 1565 1566 1566 1567 1567 1568 1568 1569
1537 1538 1540 1541 1542 1543 1544 1546 1548 1549 1551 1551 1551 1552 1553 1554 1554 1555 1556 1556 1557 1558 1558 1559 1559 1560 1561 1562 1563 1563 1564 1564 1564 1565 1565 1564 1564 1565 1565 1566 1566 1566 1567
1536 1538 1539 1540 1541 1543 1544 1546 1548 1549 1550 1551 1552 1552 1552 1554 1554 1555 1555 1556 1557 1557 1558 1558 1559 1560 1560 1561 1562 1562 1562 1563 1563 1563 1564 1563 1563 1563 1563 1564 1564 1564 1565
1535 1537 1538 1540 1541 1542 1544 1546 1548 1549 1550 1551 1551 1551 1552 1553 1553 1554 1555 1555 1556 1556 1556 1557 1558 1559 1559 1560 1561 1561 1561 1561 1562 1561 1562 1562 1562 1562 1562 1562 1562 1562 1563
1534 1535 1537 1540 1541 1542 1544 1545 1547 1549 1550 1550 1551 1551 1551 1552 1552 1553 1554 1555 1555 1556 1556 1557 1558 1558 1559 1559 1559 1559 1560 1559 1559 1559 1560 1560 1560 1561 1560 1560 1560 1560 1561
1532 1533 1535 1538 1540 1541 1543 1544 1546 1547 1548 1549 1550 1551 1551 1551 1552 1552 1553 1554 1554 1555 1555 1556 1557 1557 1557 1557 1558 1558 1558 1558 1557 1558 1558 1558 1558 1558 1558 1558 1558 1558 1558
1529 1532 1534 1536 1538 1540 1542 1543 1545 1546 1547 1548 1549 1549 1550 1550 1551 1551 1552 1552 1553 1554 1554 1554 1554 1555 1555 1555 1556 1556 1556 1556 1555 1556 1556 1556 1556 1556 1556 1556 1556 1556 1556
1527 1529 1532 1534 1536 1538 1540 1541 1543 1545 1546 1547 1548 1548 1548 1549 1550 1550 1551 1551 1551 1552 1552 1553 1553 1554 1554 1554 1554 1554 1554 1553 1553 1553 1553 1553 1554 1554 1553 1553 1553 1554 1554
1524 1527 1529 1531 1534 1535 1537 1539 1541 1543 1544 1545 1546 1546 1547 1547 1548 1549 1549 1549 1550 1550 1550 1551 1551 1552 1552 1552 1553 1553 1552 1553 1551 1551 1551 1551 1551 1551 1551 1551 1551 1551 1551
1521 1523 1526 1528 1531 1533 1535 1537 1539 1540 1541 1543 1543 1544 1544 1545 1546 1546 1547 1547 1548 1548 1549 1549 1549 1550 1550 1551 1550 1551 1551 1549 1550 1550 1549 1549 1548 1549 1549 1549 1548 1548 1548
1517 1520 1522 1525 1527 1530 1532 1534 1536 1537 1539 1540 1541 1542 1542 1542 1543 1544 1544 1545 1545 1546 1546 1547 1548 1548 1548 1549 1549 1548 1549 1548 1549 1548 1548 1547 1546 1546 1546 1546 1546 1546 1546
1513 1516 1518 1521 1523 1526 1529 1531 1533 1535 1536 1538 1538 1539 1539 1540 1541 1541 1542 1542 1543 1543 1544 1544 1545 1545 1546 1546 1547 1546 1546 1546 1546 1547 1546 1546 1545 1545 1544 1543 1543 1543 1543
1508 1512 1514 1516 1519 1522 1525 1527 1529 1531 1533 1534 1535 1536 1537 1538 1538 1539 1539 1540 1540 1541 1541 1541 1542 1542 1543 1543 1543 1544 1544 1544 1544 1544 1544 1543 1543 1543 1542 1541 1541 1541 1540